Temp
59 59 59 60 60 60 60 60 61 60 61 61 61 61 62 62 65 70 59 62 65 65 63 70 71 70 72 64 66 66 61 53 51 51 54 62 56 63 64 60 64 65 64 67 70
59 59 59 59 59 59 60 60 60 60 60 60 61 61 61 62 68 64 64 65 66 65 68 68 66 69 63 61 62 63 57 51 54 55 53 56 56 57 55 57 58 61 65 66 67
58 58 58 58 59 59 59 60 60 60 60 60 61 61 61 64 64 61 65 65 65 68 68 67 68 67 60 60 58 57 51 53 54 55 54 53 53 58 54 51 57 54 58 63 64
58 57 58 58 58 59 59 59 60 60 60 60 61 61 61 66 54 65 64 65 65 71 68 67 65 60 57 54 57 50 53 54 53 54 52 51 55 54 54 54 58 60 63 62 61
57 57 57 57 58 58 59 59 60 60 60 60 61 61 64 62 57 69 64 67 71 69 64 63 62 60 54 55 57 53 52 53 54 55 53 54 52 52 54 56 57 60 59 56 57
57 57 57 57 57 58 58 59 59 60 60 61 61 60 64 55 66 69 67 67 66 67 63 64 61 63 56 53 54 54 53 53 54 54 53 50 53 54 54 55 54 51 50 49 52
57 57 56 57 57 58 58 59 59 59 60 61 62 67 62 55 67 68 67 64 65 65 61 61 61 59 59 52 54 53 50 52 54 54 51 53 48 49 50 52 51 45 43 44 50
57 57 56 56 57 57 58 59 59 59 60 61 61 66 54 65 69 66 67 64 66 66 63 63 64 58 57 56 54 52 53 49 53 52 53 52 45 51 52 50 45 43 44 46 48
57 56 56 56 57 57 58 58 59 60 61 62 63 63 53 64 61 64 65 60 62 64 63 63 62 57 55 51 49 48 44 38 48 53 51 50 39 48 52 47 44 42 43 44 46
57 56 56 56 57 57 58 58 60 61 64 66 66 59 58 55 60 61 65 62 59 60 58 59 60 56 55 49 41 41 42 44 41 50 50 47 45 47 47 45 42 41 42 42 44
57 56 56 56 57 57 58 62 59 58 59 51 52 54 55 60 61 60 61 60 60 60 54 56 53 45 46 47 42 39 35 32 45 49 45 42 45 44 46 45 42 41 41 41 42
57 56 56 56 57 56 59 58 56 58 50 55 55 55 57 57 54 58 63 56 57 51 54 53 46 49 49 47 44 37 35 34 41 47 43 33 38 48 45 43 45 43 42 40 41
57 56 56 56 56 57 57 54 56 57 56 51 54 54 54 56 52 53 58 56 54 52 52 49 48 49 46 45 45 46 43 42 40 45 46 43 40 40 50 51 51 51 47 44 41
57 56 55 56 53 57 55 55 56 56 44 47 50 52 55 55 51 57 57 54 53 49 51 50 49 47 47 46 47 43 49 46 43 43 40 48 37 42 46 46 48 50 49 46 45
56 56 55 54 57 56 55 57 57 55 33 46 49 59 55 51 51 52 56 55 50 49 49 46 46 46 45 45 47 45 47 45 44 42 43 46 42 46 48 44 43 48 50 50 49
56 55 54 55 57 55 56 56 55 36 33 41 49 48 49 51 50 53 53 56 53 50 51 47 51 50 49 49 48 49 45 45 45 44 35 42 41 47 46 43 46 49 50 50 50
55 55 54 57 54 55 56 55 34 32 40 36 42 47 48 45 47 49 47 44 42 34 35 45 46 49 49 47 48 48 46 39 35 34 36 43 40 47 48 48 47 47 49 50 50
53 53 49 53 54 54 54 43 31 33 34 42 44 46 45 45 44 46 46 45 45 44 42 43 39 46 48 45 43 45 44 39 30 34 39 41 39 46 50 50 50 50 50 50 50
53 50 52 50 52 53 48 33 34 36 44 43 43 41 39 42 44 46 43 44 45 45 40 41 39 47 46 47 47 45 43 44 38 30 33 45 45 46 48 48 49 49 48 49 49
49 49 50 50 52 52 36 36 34 42 46 48 38 42 34 37 41 42 43 44 42 45 47 43 38 42 45 47 47 44 47 39 41 31 31 42 41 46 42 47 50 49 49 48 48
49 44 47 51 51 44 34 32 33 41 43 45 41 33 43 35 35 41 43 41 45 44 46 45 43 38 43 42 43 44 43 42 42 39 34 33 45 52 52 51 51 51 52 51 49
48 34 49 50 36 33 32 33 40 41 43 40 43 44 43 40 38 39 42 44 47 46 41 44 41 39 41 44 44 43 43 44 39 36 40 35 42 51 52 55 55 53 52 52 51
36 39 49 47 32 32 29 31 35 38 41 40 38 43 45 43 36 40 39 41 44 44 42 43 35 32 33 38 42 39 43 44 43 41 35 34 46 49 50 49 53 54 52 51 50
38 32 39 44 44 36 32 32 32 39 42 43 41 44 41 36 34 35 38 40 42 43 40 43 39 36 40 39 41 38 41 42 42 35 39 40 47 47 49 49 51 52 54 52 51
36 34 35 32 32 40 36 35 31 32 39 44 38 41 39 32 35 33 37 38 40 41 42 38 32 31 39 41 40 39 40 42 38 42 38 46 45 52 56 53 54 54 53 52 50
34 34 36 35 39 40 37 33 36 38 36 35 37 44 43 35 43 34 39 38 39 39 40 39 31 27 29 33 34 31 38 40 40 42 42 44 43 55 58 59 56 54 52 50 50
43 45 49 38 40 40 37 36 40 44 42 44 45 44 40 44 46 47 46 47 44 38 33 32 29 30 32 28 28 30 34 38 41 43 43 38 48 56 51 54 54 54 53 51 51
MSLP
1021.42 1021.25 1021.21 1020.99 1020.73 1020.49 1020.26 1020.02 1019.66 1019.34 1019.02 1018.77 1018.56 1018.35 1018.05 1017.49 1016.61 1016.12 1016.54 1017.58 1016.99 1016.28 1015.76 1014.74 1014.03 1013.76 1013.26 1013.62 1013.78 1013.41 1012.32 1013.15 1014.29 1014.71 1014.69 1015.11 1015.51 1015.39 1015.55 1015.16 1014.73 1014.49 1014.06 1013.68 1013.44
1021.66 1021.47 1021.19 1021.08 1020.72 1020.53 1020.35 1019.97 1019.73 1019.35 1019.08 1018.76 1018.59 1018.32 1018.14 1017.83 1016.86 1016.69 1017.93 1017.45 1016.93 1016.32 1015.18 1014.47 1014.08 1013.66 1013.84 1014.28 1014.43 1013.44 1013.81 1015.16 1016.18 1016.31 1016.31 1016.25 1016.29 1016.04 1015.90 1015.33 1014.84 1014.25 1014.36 1014.23 1013.73
1021.57 1021.60 1021.21 1021.18 1020.79 1020.51 1020.31 1020.02 1019.64 1019.32 1019.05 1018.78 1018.57 1018.36 1018.08 1017.87 1016.92 1017.36 1017.71 1017.39 1016.99 1016.22 1015.73 1015.35 1014.72 1014.16 1014.37 1015.04 1015.60 1015.44 1015.64 1016.66 1017.09 1017.54 1017.60 1017.12 1017.11 1016.90 1016.52 1015.72 1015.48 1015.09 1014.17 1013.56 1013.23
1021.50 1021.60 1021.33 1021.09 1020.86 1020.55 1020.39 1019.95 1019.68 1019.24 1019.07 1018.80 1018.53 1018.35 1018.01 1017.49 1017.62 1017.77 1018.01 1017.56 1017.06 1016.17 1015.67 1015.20 1014.86 1014.62 1015.00 1015.64 1016.52 1016.59 1017.29 1017.53 1017.92 1018.17 1018.13 1017.89 1017.67 1016.90 1016.69 1016.51 1016.59 1015.94 1014.73 1014.18 1013.65
1021.35 1021.54 1021.37 1021.14 1020.80 1020.54 1020.41 1019.97 1019.59 1019.24 1018.95 1018.81 1018.60 1018.38 1018.01 1017.25 1018.06 1018.11 1018.14 1017.64 1016.75 1016.26 1015.92 1015.51 1015.28 1015.18 1015.63 1016.56 1016.75 1016.87 1017.65 1018.06 1018.19 1018.07 1018.24 1018.28 1017.48 1017.23 1016.67 1016.84 1016.87 1015.71 1015.23 1015.12 1014.39
1021.12 1021.37 1021.32 1021.10 1020.90 1020.51 1020.35 1019.92 1019.52 1019.20 1019.01 1018.72 1018.60 1018.40 1017.79 1017.85 1018.66 1018.46 1018.25 1017.82 1017.47 1016.69 1016.55 1016.01 1016.18 1016.07 1016.52 1017.14 1017.12 1017.63 1017.78 1017.97 1018.00 1017.95 1018.18 1018.09 1017.29 1017.17 1017.43 1017.59 1017.03 1016.62 1016.18 1015.85 1015.27
1020.98 1021.16 1021.11 1021.01 1020.90 1020.54 1020.36 1019.83 1019.40 1019.16 1019.07 1018.80 1018.65 1018.03 1017.68 1018.93 1018.80 1018.70 1018.45 1018.31 1018.10 1017.54 1017.11 1017.48 1017.24 1016.71 1016.90 1017.48 1018.22 1018.08 1017.69 1017.81 1017.61 1017.84 1017.99 1018.02 1017.33 1017.69 1018.50 1017.98 1017.75 1017.60 1017.54 1017.03 1015.99
1020.80 1020.96 1020.98 1020.84 1020.71 1020.67 1020.19 1019.85 1019.27 1019.17 1019.02 1018.84 1018.66 1018.01 1018.55 1019.13 1018.98 1018.82 1018.51 1018.28 1018.24 1018.08 1017.92 1017.97 1017.67 1017.47 1017.51 1018.17 1018.16 1017.67 1017.53 1017.05 1017.47 1017.88 1018.04 1017.86 1017.20 1017.98 1018.52 1018.42 1018.36 1018.12 1018.10 1017.23 1016.16
1020.62 1020.72 1020.87 1020.63 1020.64 1020.56 1020.08 1019.80 1019.18 1019.12 1018.85 1018.73 1018.52 1017.90 1018.78 1019.22 1019.01 1019.06 1018.90 1018.47 1018.30 1018.10 1018.12 1018.09 1017.62 1017.65 1018.18 1017.83 1017.69 1018.07 1017.87 1018.32 1017.61 1018.28 1018.40 1018.27 1018.72 1018.81 1018.88 1019.13 1018.95 1018.73 1018.38 1017.64 1016.65
1020.41 1020.60 1020.65 1020.50 1020.48 1020.36 1020.01 1019.81 1019.16 1018.99 1018.64 1018.40 1018.40 1018.53 1019.26 1019.25 1019.28 1019.26 1018.89 1018.76 1018.24 1017.97 1017.82 1017.51 1017.12 1017.17 1017.65 1017.95 1018.35 1018.82 1018.89 1018.75 1018.72 1018.59 1018.59 1018.68 1018.88 1019.15 1019.47 1019.59 1019.48 1019.10 1018.69 1018.09 1017.03
1020.25 1020.40 1020.50 1020.38 1020.28 1020.20 1020.00 1019.70 1019.56 1019.11 1018.97 1019.15 1019.30 1019.26 1019.34 1019.49 1019.60 1019.18 1019.08 1018.55 1018.07 1017.56 1017.05 1017.28 1016.94 1017.75 1018.66 1019.09 1019.72 1019.97 1020.04 1020.01 1019.25 1019.21 1019.27 1019.09 1018.87 1019.05 1019.41 1019.65 1019.60 1019.45 1018.80 1018.79 1018.04
1019.92 1020.16 1020.30 1020.40 1020.11 1020.17 1020.08 1019.43 1019.70 1019.77 1019.79 1019.87 1019.64 1019.62 1019.81 1019.93 1019.42 1019.19 1019.13 1018.57 1017.65 1017.31 1017.63 1017.50 1017.89 1018.97 1019.51 1019.69 1019.87 1020.40 1020.28 1020.11 1019.83 1019.40 1019.54 1019.41 1018.80 1018.58 1019.09 1019.59 1019.84 1019.67 1019.38 1018.87 1018.28
1019.73 1020.02 1020.13 1020.15 1020.20 1020.10 1019.99 1020.13 1020.46 1020.21 1019.18 1019.87 1019.83 1019.70 1019.85 1019.97 1019.51 1019.53 1019.35 1018.81 1018.01 1017.63 1017.60 1017.58 1018.96 1019.62 1019.71 1019.74 1019.54 1019.44 1019.49 1019.52 1019.73 1019.00 1018.86 1018.63 1018.07 1018.17 1018.11 1018.68 1019.11 1019.17 1019.56 1019.49 1019.24
1019.57 1019.90 1020.08 1020.05 1020.58 1020.00 1020.05 1020.41 1020.51 1020.54 1020.12 1019.85 1019.65 1019.93 1019.92 1019.79 1019.68 1020.00 1019.93 1019.66 1018.63 1018.26 1018.15 1018.58 1019.67 1019.63 1019.51 1019.32 1019.45 1018.98 1019.21 1019.40 1019.14 1018.68 1017.70 1017.85 1017.22 1017.16 1017.56 1018.05 1018.60 1019.06 1019.29 1019.55 1019.58
1019.45 1019.83 1019.96 1020.34 1019.61 1019.96 1020.34 1020.43 1020.56 1020.41 1020.34 1020.11 1019.66 1019.98 1019.79 1019.63 1019.93 1019.94 1020.28 1019.55 1019.02 1018.84 1018.99 1019.20 1019.47 1019.48 1019.28 1019.37 1019.46 1019.21 1019.49 1019.23 1018.82 1018.20 1017.61 1016.68 1016.67 1016.04 1016.98 1017.68 1018.54 1018.94 1019.30 1019.66 1020.04
1019.17 1019.82 1020.14 1020.09 1020.03 1020.27 1020.60 1020.50 1020.38 1020.57 1020.05 1019.86 1019.61 1019.55 1019.41 1019.53 1019.67 1019.73 1019.81 1019.84 1020.00 1019.28 1019.19 1019.51 1019.90 1019.76 1019.53 1019.48 1019.45 1019.43 1019.16 1018.78 1018.38 1017.76 1017.12 1016.68 1016.70 1015.36 1016.62 1018.03 1018.67 1019.13 1019.47 1019.66 1019.92
1019.08 1019.72 1020.15 1020.00 1020.10 1020.44 1020.67 1020.30 1020.63 1020.48 1020.27 1019.86 1019.42 1019.44 1019.26 1019.48 1019.63 1019.70 1019.69 1020.00 1020.18 1020.04 1019.75 1019.67 1019.65 1019.94 1020.09 1019.32 1019.25 1018.95 1018.26 1017.50 1017.49 1017.07 1016.45 1016.57 1016.43 1015.72 1017.01 1018.05 1018.99 1019.47 1019.72 1019.92 1020.10
1019.20 1019.77 1020.61 1020.44 1020.79 1020.86 1020.45 1020.25 1020.59 1019.78 1019.60 1019.76 1019.40 1019.56 1019.31 1019.76 1019.92 1019.82 1019.67 1019.83 1020.34 1020.35 1019.92 1019.59 1019.82 1020.07 1020.30 1020.04 1019.77 1019.10 1018.74 1017.96 1017.56 1016.96 1016.38 1016.60 1015.82 1015.92 1017.11 1018.19 1019.02 1019.66 1020.08 1020.50 1020.76
1019.20 1019.89 1020.27 1020.84 1021.00 1020.95 1020.41 1020.64 1019.48 1018.93 1018.63 1019.02 1019.52 1019.53 1019.72 1020.04 1019.87 1019.85 1019.86 1020.04 1020.60 1020.63 1020.47 1020.22 1020.23 1020.52 1020.78 1020.64 1020.50 1019.25 1018.91 1019.05 1018.28 1018.28 1017.12 1015.40 1015.81 1016.24 1016.98 1017.85 1018.63 1019.24 1019.93 1020.54 1021.19
1018.70 1019.50 1020.18 1020.88 1021.02 1020.76 1020.75 1020.29 1019.88 1019.49 1018.87 1018.66 1018.73 1019.28 1019.63 1020.05 1020.03 1020.05 1020.13 1020.67 1020.89 1021.14 1021.06 1020.63 1020.63 1020.73 1020.81 1020.90 1020.74 1020.38 1020.03 1019.27 1018.44 1017.70 1016.37 1015.13 1015.15 1015.16 1016.43 1016.92 1017.84 1018.66 1019.40 1020.21 1021.17
1018.23 1019.30 1020.67 1020.91 1020.87 1021.00 1021.05 1020.42 1020.01 1019.88 1019.51 1019.13 1018.74 1019.19 1019.46 1019.88 1020.48 1020.12 1020.26 1021.17 1021.10 1021.47 1021.42 1021.04 1020.79 1021.22 1020.93 1020.76 1020.56 1020.45 1019.89 1019.59 1019.08 1018.34 1017.42 1016.21 1014.44 1014.73 1015.14 1016.14 1017.03 1018.05 1018.88 1019.84 1020.94
1017.66 1019.36 1020.53 1020.86 1020.98 1021.08 1021.12 1020.62 1020.22 1020.06 1019.90 1019.68 1019.19 1018.83 1019.08 1020.02 1020.34 1020.45 1020.58 1021.14 1021.64 1021.65 1021.70 1021.46 1021.07 1020.72 1020.80 1021.20 1021.48 1021.25 1020.44 1019.94 1019.07 1018.50 1017.94 1017.47 1015.28 1015.04 1015.35 1015.69 1016.69 1017.62 1018.76 1019.74 1020.53
1017.23 1019.25 1020.44 1020.64 1020.34 1020.65 1021.29 1021.06 1020.74 1020.04 1019.82 1019.80 1019.32 1019.26 1019.19 1019.60 1020.37 1021.05 1021.30 1022.19 1022.44 1022.17 1022.40 1022.17 1021.73 1021.33 1021.41 1021.70 1021.53 1021.18 1020.73 1020.36 1019.84 1019.28 1017.76 1017.02 1014.76 1015.20 1015.54 1016.04 1016.59 1017.39 1018.57 1019.61 1020.56
1016.28 1018.81 1020.02 1020.03 1019.39 1019.20 1019.98 1020.20 1020.57 1020.16 1019.62 1019.59 1019.29 1019.60 1019.51 1020.11 1020.82 1021.26 1021.55 1022.44 1022.85 1022.73 1023.00 1023.04 1022.19 1021.83 1021.17 1020.77 1021.11 1020.92 1020.56 1020.43 1019.88 1019.34 1017.48 1015.70 1014.33 1014.79 1015.12 1015.55 1016.01 1016.76 1017.88 1019.08 1020.05
1014.55 1015.84 1016.20 1018.33 1018.58 1018.12 1018.40 1018.73 1019.44 1019.61 1019.80 1019.48 1019.54 1019.10 1018.94 1020.13 1020.65 1021.23 1021.73 1022.52 1023.14 1023.26 1023.28 1023.44 1023.25 1022.78 1021.90 1021.26 1021.12 1020.74 1020.28 1019.93 1019.55 1018.46 1017.65 1014.91 1014.23 1013.71 1013.60 1014.53 1015.04 1015.89 1016.96 1018.07 1019.16
1013.29 1014.42 1015.58 1016.00 1015.88 1017.04 1017.32 1017.74 1017.40 1018.27 1018.30 1018.96 1018.89 1018.48 1018.86 1019.01 1019.20 1019.76 1020.69 1021.31 1021.86 1023.52 1023.38 1023.62 1024.16 1023.81 1022.52 1021.99 1021.16 1020.25 1019.53 1019.17 1018.75 1017.97 1017.00 1016.12 1013.92 1013.55 1013.22 1013.60 1014.43 1015.25 1016.19 1016.94 1017.92
1011.88 1012.48 1012.39 1014.87 1015.31 1015.59 1015.55 1016.03 1016.08 1016.81 1017.86 1018.17 1017.82 1018.38 1019.10 1019.32 1019.71 1020.05 1020.79 1020.94 1021.52 1022.72 1023.88 1023.86 1023.96 1024.20 1022.94 1021.99 1021.15 1019.36 1017.67 1017.72 1017.51 1016.94 1016.41 1015.76 1013.81 1013.05 1013.32 1013.25 1013.88 1014.52 1015.47 1016.37 1017.14
Wind_Speed
4 4 6 7 8 9 9 10 11 11 11 11 10 10 10 12 12 6 13 12 13 20 14 4 2 3 8 6 7 3 2 5 4 6 9 9 12 11 11 15 14 13 14 16 20
5 5 6 7 8 9 10 10 11 11 12 11 10 9 9 8 6 15 10 15 16 17 5 3 6 6 5 5 5 5 4 3 3 6 10 13 11 14 11 16 18 19 22 23 24
5 6 6 8 8 8 10 11 11 11 12 10 9 9 8 8 3 6 16 16 15 13 5 3 2 6 9 8 7 6 5 3 6 7 8 11 11 13 14 14 18 25 27 26 26
5 6 7 7 9 9 10 10 11 11 11 10 10 10 8 4 1 7 16 16 13 11 2 2 1 3 6 7 4 8 5 4 5 6 6 9 12 11 7 13 19 22 22 21 21
5 6 7 8 8 9 11 11 11 11 10 10 10 9 5 4 5 9 13 13 8 7 10 5 8 7 7 7 8 9 5 2 5 9 6 9 9 8 9 17 20 20 19 19 22
6 6 7 9 10 10 10 11 11 11 9 8 9 8 4 1 5 8 10 9 12 10 14 12 9 11 10 5 3 3 3 3 5 10 6 12 8 5 18 19 18 17 18 20 19
7 6 7 9 10 10 12 11 11 9 8 8 9 5 9 5 4 7 6 6 9 10 8 10 3 2 5 7 3 3 3 2 5 12 4 15 5 18 17 16 18 22 19 19 19
7 6 7 8 10 12 12 12 8 6 7 8 8 4 4 2 5 5 5 2 5 6 8 5 6 8 4 6 4 2 4 3 5 12 5 12 9 18 16 16 16 16 17 19 16
8 6 7 7 9 11 12 10 4 6 4 6 4 4 4 1 2 5 5 4 3 2 3 2 1 4 3 3 3 5 3 5 3 5 8 11 10 17 17 16 17 17 17 13 12
9 8 7 7 9 11 10 6 3 4 4 2 1 3 3 2 3 5 3 4 2 2 3 2 2 5 5 2 3 3 3 2 5 8 8 10 9 10 14 15 16 17 17 17 16
10 8 6 5 8 10 6 3 4 3 7 4 3 2 2 2 2 3 3 4 3 3 1 2 3 6 6 9 6 3 2 2 5 4 9 6 7 8 9 13 14 15 18 16 17
11 8 5 5 6 5 4 4 3 3 7 3 2 3 2 3 2 6 6 4 3 2 0 2 6 5 5 3 3 2 2 4 8 7 4 5 7 5 6 6 10 11 14 19 20
11 8 4 4 3 2 0 2 4 6 0 3 2 1 2 3 2 6 8 3 3 3 3 3 6 6 2 2 3 2 4 5 6 9 5 10 5 3 6 9 11 13 10 14 17
12 8 3 2 2 3 2 4 1 3 1 5 4 3 2 1 2 3 5 4 1 2 3 5 4 2 3 1 3 3 1 6 7 8 4 5 4 2 5 8 12 14 15 14 16
11 7 2 9 3 3 5 4 1 3 3 3 4 2 1 1 2 4 2 3 2 3 3 5 3 2 3 2 2 4 2 9 6 5 8 5 6 5 2 7 10 13 13 14 15
13 9 6 4 2 4 4 4 3 5 6 4 2 3 4 2 2 1 2 3 2 1 2 3 1 3 5 4 4 4 4 2 2 3 2 4 4 7 5 3 6 9 11 12 13
14 9 4 1 1 6 4 4 5 3 2 4 4 4 2 3 3 2 2 3 2 4 1 1 1 0 3 5 4 7 6 2 3 3 2 2 4 6 4 4 3 5 7 9 11
16 11 4 4 3 5 4 3 3 1 5 1 4 6 3 1 3 2 4 4 4 0 2 3 3 2 4 4 5 5 5 3 4 4 4 3 2 3 4 3 3 0 2 4 7
17 3 4 3 3 3 2 2 6 5 9 11 6 3 2 3 1 4 2 2 2 1 1 2 3 2 4 4 5 4 2 3 3 2 3 1 4 3 3 4 5 2 1 3 5
5 5 4 4 3 3 3 6 4 1 5 5 4 3 5 5 6 4 5 2 3 1 0 3 2 2 2 2 1 4 2 3 2 4 4 3 3 3 8 9 7 6 5 1 4
4 5 5 4 3 2 4 6 3 3 1 4 5 5 3 6 2 5 6 3 3 3 1 1 2 3 1 2 3 2 2 1 3 3 3 5 3 4 5 12 11 9 8 8 6
5 3 4 4 3 1 3 3 3 5 2 1 2 4 6 6 4 4 5 4 3 3 1 1 0 2 3 4 2 4 4 4 4 2 1 2 5 4 4 7 10 11 10 8 7
7 4 3 4 5 4 2 1 2 6 5 5 3 1 2 6 5 3 4 3 1 2 1 2 1 2 1 2 2 4 4 4 3 3 6 3 1 2 4 6 8 10 11 10 11
6 6 3 4 2 4 6 5 4 2 4 3 5 2 3 3 4 5 6 3 3 3 3 4 2 2 2 2 1 4 6 8 8 3 4 10 11 6 8 10 12 12 11 11 10
3 6 7 10 7 7 4 7 7 7 3 5 1 7 6 5 2 3 2 6 3 5 3 2 1 2 8 7 6 8 12 12 16 16 10 5 12 8 7 12 15 15 14 14 14
9 7 2 2 12 12 8 8 10 7 10 5 5 13 7 5 3 9 9 6 4 6 5 3 2 0 4 1 4 7 14 17 17 19 21 21 28 20 20 9 12 16 17 16 16
2 2 3 10 10 10 8 9 12 13 4 2 8 9 7 4 10 12 7 8 8 8 3 4 6 2 4 3 7 5 6 14 9 8 14 16 14 11 3 13 15 15 17 17 16
Wind_Direction
314 326 333 344 349 351 347 345 346 345 345 344 343 340 339 325 306 57 36 344 336 333 310 297 261 13 52 62 32 307 164 74 40 354 320 345 330 325 319 287 309 300 284 294 304
302 315 332 335 346 345 339 341 340 340 338 340 337 332 333 324 303 47 360 340 339 341 343 327 50 69 66 50 30 4 70 68 10 327 318 314 315 314 316 317 307 319 316 312 303
287 304 322 326 336 339 333 335 335 337 335 336 334 327 330 299 245 13 356 338 339 328 16 1 17 60 69 61 15 17 85 115 29 357 323 311 307 330 306 304 332 315 312 314 312
272 291 309 320 329 334 326 331 332 335 333 334 330 327 321 244 344 356 344 333 327 345 310 31 333 77 74 69 49 109 82 52 12 355 309 306 318 312 335 314 323 308 308 323 320
258 283 302 313 321 326 322 326 329 331 330 329 325 327 279 91 52 347 333 342 347 12 33 38 59 82 93 101 85 99 139 88 27 344 292 302 289 327 300 347 320 315 331 323 324
243 270 294 309 313 321 318 323 327 328 322 324 327 317 259 153 351 344 342 352 8 22 39 49 71 88 86 81 13 112 140 72 345 335 266 323 300 269 357 333 331 337 336 321 318
239 261 289 303 310 318 315 320 324 325 319 325 330 305 59 74 334 350 358 12 6 19 61 46 60 262 133 120 113 125 187 184 12 351 314 331 232 21 349 334 335 353 339 317 313
235 257 279 297 311 313 317 314 319 319 317 323 314 278 73 10 335 352 344 358 34 46 74 62 39 79 41 116 157 266 263 308 51 5 20 339 14 11 346 352 348 333 333 333 321
227 242 272 297 309 313 318 312 314 302 302 300 268 281 109 143 289 344 346 342 326 65 72 128 338 82 162 137 145 33 46 345 23 31 345 16 335 350 359 359 350 352 346 346 337
218 235 262 297 314 316 316 292 331 266 249 242 209 193 168 52 337 330 340 310 308 251 216 219 151 107 68 236 62 28 357 18 339 359 341 7 357 350 5 1 360 351 351 357 360
217 233 264 299 321 328 301 222 206 143 43 45 29 30 61 16 270 356 354 297 243 233 216 53 124 80 68 57 71 75 32 311 277 359 318 9 341 340 356 7 0 355 352 359 360
211 223 252 303 325 340 285 261 5 35 110 53 69 87 43 351 250 42 329 271 257 92 191 174 86 102 102 84 91 103 323 308 286 305 334 310 300 360 40 19 11 360 7 357 357
204 215 234 308 316 247 223 100 336 317 169 109 59 27 36 312 52 12 343 323 15 68 42 37 88 141 210 175 296 169 311 333 305 311 227 286 233 294 72 37 25 24 18 20 7
196 202 225 305 220 152 155 134 322 340 201 151 161 99 179 307 128 17 11 332 138 86 49 68 120 223 244 284 330 306 141 320 310 309 7 349 329 89 25 20 27 23 20 15 14
184 185 204 238 94 210 94 138 109 237 286 123 120 60 89 327 28 80 21 252 38 108 266 88 169 219 253 40 313 9 314 306 293 284 313 65 267 87 86 28 10 6 16 18 24
167 161 147 148 201 90 145 152 207 50 247 135 138 155 163 91 90 43 98 80 341 84 45 71 358 290 349 299 248 339 272 257 224 254 256 354 307 71 34 23 13 8 20 13 14
158 152 203 24 77 143 166 215 61 189 6 196 155 177 140 106 103 18 81 61 342 64 323 197 157 279 306 280 175 249 250 241 207 202 21 21 278 17 82 106 57 354 17 13 11
133 129 65 65 128 164 204 77 177 227 196 177 128 128 144 147 95 125 162 152 110 254 171 237 202 337 0 11 339 342 332 360 308 344 11 144 259 57 71 118 140 344 15 36 28
135 111 138 103 154 225 135 137 221 189 152 157 128 148 136 150 174 192 126 109 51 37 232 262 116 114 33 337 321 23 335 15 299 106 247 171 147 246 219 220 216 217 266 88 68
144 162 132 131 169 227 85 242 196 233 123 184 145 206 156 169 174 197 162 128 145 145 14 112 180 63 77 270 191 316 2 246 186 324 306 113 265 39 218 235 217 210 205 171 98
141 149 112 154 195 83 209 224 165 191 283 234 147 125 157 150 219 168 159 145 166 149 271 234 262 122 222 190 349 190 234 253 298 329 320 324 94 57 164 193 204 206 188 172 172
149 144 133 188 119 140 207 180 121 157 186 208 346 109 141 157 138 165 156 40 133 133 205 123 8 179 72 101 33 304 304 294 290 141 299 305 274 132 125 178 189 182 186 183 168
125 115 136 238 176 192 143 155 239 144 181 181 137 238 177 148 123 158 130 102 105 134 79 222 289 60 178 172 171 245 192 265 303 320 216 232 203 151 167 186 195 195 179 182 183
124 126 150 221 234 162 160 166 166 197 160 172 127 124 128 107 32 154 137 140 149 120 68 282 153 259 284 91 360 223 213 219 218 232 260 233 269 185 207 209 199 202 191 188 195
117 193 178 173 221 191 170 143 144 165 240 193 165 221 162 117 106 146 115 134 160 157 155 112 175 333 280 269 239 251 260 233 225 231 250 309 260 276 260 216 207 197 191 193 194
140 148 159 159 139 158 178 213 162 150 151 211 224 188 181 146 204 175 152 180 172 175 172 140 215 346 279 346 205 259 253 242 244 245 255 267 277 271 261 234 216 201 196 199 200
138 109 154 155 160 166 190 177 185 143 204 278 181 142 164 109 79 79 66 90 127 147 143 148 137 193 264 315 289 283 245 208 207 225 234 242 249 261 300 226 222 213 204 204 202